Regional Weather Roundup
Issued by NWS

Home | Current Version | Previous Version | Graphics & Text | Print | Product List | Glossary On
Versions: 1 2 3 4 5 6 7 8 9 10 11 12 13 14 15 16 17 18 19 20 21 22 23 24 25 26 27 28 29 30 31 32 33 34 35 36 37 38 39 40 41 42 43 44 45 46 47 48 49 50
809
ASUS43 KOAX 270310
RWRNE

WEATHER ROUNDUP FOR NEBRASKA
NATIONAL WEATHER SERVICE OMAHA NE
1000 PM CDT FRI AUG 26 2016

NOTES: SATELLITE DATA IS BEING USED TO AUGMENT CLOUD COVER ABOVE
       12000 FEET.
       "FAIR" INDICATES FEW OR NO CLOUDS BELOW 12,000 FEET WITH NO
       SIGNIFICANT WEATHER AND/OR OBSTRUCTIONS TO VISIBILITY.

  * THESE STATIONS DO NOT REPORT WEATHER SUCH AS RAIN...SNOW OR FOG.

NEZ001>004-019>022-054>056-270400-
NEBRASKA PANHANDLE

CITY           SKY/WX    TMP DP  RH WIND       PRES   REMARKS
SCOTTSBLUFF    CLEAR     58  55  90 SE7       30.06R
ALLIANCE       CLEAR     55  53  93 SE8       30.05R
CHADRON        CLEAR     60  53  77 S8        30.00R
KIMBALL        CLEAR     56  56 100 S12       30.11R
SIDNEY         CLOUDY    55  52  89 S7        30.10R
$$

NEZ057>060-069>072-079>082-270400-
SOUTHWEST NEBRASKA

CITY           SKY/WX    TMP DP  RH WIND       PRES   REMARKS
NORTH PLATTE   CLOUDY    61  58  90 N7        30.04S
IMPERIAL       CLOUDY    57  55  93 S5        30.06S
LEXINGTON      LGT RAIN  65  60  83 SE12      30.04F
MCCOOK         CLOUDY    60  55  83 E13       30.05R
OGALLALA       CLOUDY    56  54  91 CALM      30.06R
$$

NEZ005>010-023>029-035>040-094-270400-
NORTH CENTRAL NEBRASKA

CITY           SKY/WX    TMP DP  RH WIND       PRES   REMARKS
VALENTINE      CLOUDY    58  56  93 E6        30.05R
AINSWORTH      MOCLDY    60  55  81 SE6       30.06R
BROKEN BOW     CLOUDY    61  58  90 E9        30.03S
O`NEILL        CLOUDY    66  58  73 E9        30.07R
ORD            CLOUDY    64  59  83 SE5       30.05R
THEDFORD       CLOUDY    60  59  95 CALM      30.07S
$$

NEZ041-046>049-061>064-073>077-083>087-270400-
SOUTH CENTRAL NEBRASKA

CITY           SKY/WX    TMP DP  RH WIND       PRES   REMARKS
GRAND ISLAND   CLOUDY    64  62  93 SE10      30.05F
AURORA         FOG       64  64 100 SE6       30.05F VSB 1
HASTINGS       CLOUDY    65  62  90 SE5       30.06F
HEBRON         CLOUDY    67  65  94 CALM      30.04F
HOLDREGE       LGT RAIN  65  61  85 S8        30.07S
KEARNEY *      CLOUDY    64  63  94 S6        30.07R
YORK           CLOUDY    64  64 100 E3        30.06F
$$

NEZ011>018-030>034-042>045-270400-
NORTHEAST NEBRASKA

CITY           SKY/WX    TMP DP  RH WIND       PRES   REMARKS
NORFOLK        LGT RAIN  62  60  93 E6        30.06S FOG
ALBION         LGT RAIN  63  60  91 E5        30.06R
BLAIR          CLOUDY    66  64  91 E8        30.07S
FREMONT        CLOUDY    65  63  91 E3        30.07S
TEKAMAH        CLOUDY    64  62  93 CALM      30.07S
WAYNE          DRIZZLE   63  62  96 SE5       30.08S
$$

NEZ050>053-065>068-078-088>093-270400-
SOUTHEAST NEBRASKA

CITY           SKY/WX    TMP DP  RH WIND       PRES   REMARKS
LINCOLN        CLOUDY    67  65  93 NE3       30.06S
OMAHA EPPLEY   CLOUDY    68  62  81 E5        30.07R
BEATRICE       CLOUDY    67  66  96 E5        30.05R
FALLS CITY     PTCLDY    68  68 100 W3        30.05R FOG
NEBRASKA CITY  CLOUDY    67  67 100 N3        30.07R
PLATTSMOUTH    CLOUDY    67  65  93 NE5       30.07R
$$

NEZ044-045-051>053-067-270400-
OMAHA AREA

CITY           SKY/WX    TMP DP  RH WIND       PRES   REMARKS
OMAHA EPPLEY   CLOUDY    68  62  81 E5        30.07R
BLAIR          CLOUDY    66  64  91 E8        30.07S
FREMONT        CLOUDY    65  63  91 E3        30.07S
MILLARD        CLOUDY    69  64  84 E3        30.06S
OFFUTT AFB     CLOUDY    67  65  92 E6        30.06S
PLATTSMOUTH    CLOUDY    67  65  93 NE5       30.07R
WAHOO          CLOUDY    66  64  94 E3        30.06F
$$




USA.gov is the U.S. government's official web portal to all federal, state and local government web resources and services.